Location: Clover
(42.5131°N, 114.6874°W)
Time: 22:46:04
(UTC+00:00)

Transit 2A - Pass Details

Date: 06 December 2025
Orbit: 589 x 956 km, 66.7° (Epoch: 18 January)

Event Time Altitude Azimuth Distance (km) Brightness Sun altitude
Rises 13:44:13 0° 201° (SSW) 3,145 9.2 -12.5°
Reaches altitude 10° 13:46:29 10° 199° (SSW) 2,281 8.5 -12.1°
Maximum altitude 13:51:42 69° 117° (ESE) 873 6.5 -11.2°
Drops below altitude 10° 13:57:32 10° 35° (NE) 2,540 8.9 -10.2°
Sets 14:00:10 0° 33° (NNE) 3,529 9.6 -9.8°
